Regional Weather Roundup
Issued by NWS Sioux Falls, SD

Home | Current Version | Previous Version | Text Only | Print | Product List | Glossary Off
Versions: 1 2 3 4 5 6 7 8 9 10 11 12 13 14 15 16 17 18 19 20 21 22 23 24 25 26 27 28 29 30 31 32 33 34 35 36 37 38 39 40 41 42 43 44 45 46 47 48 49 50

000
ASUS43 KFSD 220610
RWRFSD

WEATHER ROUNDUP FOR SE SOUTH DAKOTA/SW MINNESOTA/NW IOWA
NATIONAL WEATHER SERVICE SIOUX FALLS SD
1200 AM CST WED NOV 22 2017

NOTE: "FAIR" INDICATES FEW OR NO CLOUDS BELOW 12,000 FEET WITH NO
SIGNIFICANT WEATHER AND OR OBSTRUCTIONS TO VISIBILITY.


SDZ038>040-050-052>070-220700-
SOUTHEAST SOUTH DAKOTA

CITY           SKY/WX    TMP DP  RH WIND       PRES   REMARKS
BROOKINGS      CLOUDY    14   8  77 CALM      30.33F
CHAMBERLAIN    CLOUDY    13  11  91 CALM      30.34S
6HR MIN TEMP:  10; 6HR MAX TEMP:  22;

HURON          CLOUDY    10   6  84 SW3       30.36F
6HR MIN TEMP:   8; 6HR MAX TEMP:  15;

MADISON        FAIR      14   7  73 W5        30.33F WCI   6
MITCHELL       CLOUDY    14   7  73 W3        30.38F
6HR MIN TEMP:  13; 6HR MAX TEMP:  20;

SIOUX FALLS    CLOUDY    14   7  73 W3        30.37R
6HR MIN TEMP:  12; 6HR MAX TEMP:  22;

WINNER         FAIR      16   9  74 S8        30.32F WCI   5
YANKTON        CLOUDY    13   8  81 NW5       30.40S WCI   5
$$

MNZ071-072-080-081-089-090-097-098-220700-
SOUTHWEST MINNESOTA

CITY           SKY/WX    TMP DP  RH WIND       PRES   REMARKS
FAIRMONT       CLOUDY    18  10  71 NW9       30.37R WCI   7
JACKSON        CLOUDY    16   9  73 CALM      30.35R
LUVERNE        CLOUDY    12   5  73 N3        30.36S
MARSHALL       CLOUDY    13   7  77 W7        30.38R WCI   3
6HR MIN TEMP:  13; 6HR MAX TEMP:  20;

MONTEVIDEO     CLOUDY    14   9  79 N3        30.38R
PIPESTONE      CLOUDY    14   7  73 NW5       30.34R WCI   6
REDWOOD FALLS  CLOUDY    15   8  73 W7        30.38R WCI   5
WINDOM           N/A     14   1  57 W6        30.34S WCI   5
WORTHINGTON    CLOUDY    15   7  70 NW6       30.35R WCI   6
$$

IAZ001>003-012>014-020>022-031-032-NEZ013-014-SDZ071-220700-
NORTHWEST IOWA

CITY           SKY/WX    TMP DP  RH WIND       PRES   REMARKS
CHEROKEE       CLOUDY    15   9  76 SW3       30.40R
DENISON        CLOUDY    18  10  73 CALM      30.40R
ESTHERVILLE    CLOUDY    13   8  81 NW7       30.35R WCI   3
LE MARS        CLOUDY    16   9  73 CALM      30.40R
ORANGE CITY    CLOUDY    16  10  79 CALM      30.37R
SHELDON        CLOUDY    12   7  79 NW5       30.36R WCI   4
SIOUX CITY     CLOUDY    16   9  74 W7        30.42R WCI   6
6HR MIN TEMP:  14; 6HR MAX TEMP:  24;

SPENCER        CLOUDY    10   6  84 NW7       30.37R WCI  -1
6HR MIN TEMP:  10; 6HR MAX TEMP:  22;

STORM LAKE     CLOUDY    14   9  79 W10       30.36R WCI   1
$$

ABBREVIATIONS USED IN REMARKS
   TC - TEMPERATURE IN CELSIUS
  WCI - WIND CHILL INDEX
   HX - HEAT INDEX
  VSB - VISIBILITY





USA.gov is the U.S. government's official web portal to all federal, state and local government web resources and services.